Weather History for Manitowoc, WI

Change the Weather History Date:

Wednesday, April 17, 2013

  Actual Average Record
Temperature  
Mean Temperature 37 °F -  
Max Temperature 41 °F 54 °F 82 °F (1958)
Min Temperature 33 °F 35 °F 22 °F (1983)
Degree Days  
Heating Degree Days 28    
Moisture  
Dew Point 32 °F    
Average Humidity 82    
Maximum Humidity 93    
Minimum Humidity 70    
Precipitation  
Precipitation 0.22 in - - ()
Sea Level Pressure  
Sea Level Pressure 30.23 in    
Wind  
Wind Speed 7 mph (NE)    
Max Wind Speed 14 mph    
Max Gust Speed 20 mph    
Visibility 10 miles    
Events Thunderstorm    
Averages and records for this station are not official NWS values.
T = Trace of Precipitation, MM = Missing Value Source: NWS Daily Summary

Daily Weather History Graph

Daily Weather History Graph

Search for Another Location

Airport:

Trip Planner

Search our weather history database for the weather conditions in past years. The results will help you decide how hot, cold, wet, or windy it might be!

Date:

Astronomy

Apr. 17, 2013 Rise Set
Actual Time 6:03 AM CDT 7:37 PM CDT
Civil Twilight 5:33 AM CDT 8:08 PM CDT
Nautical Twilight 4:56 AM CDT 8:44 PM CDT
Astronomical Twilight 4:17 AM CDT 9:24 PM CDT
Moon 11:12 AM CDT (4/17) 1:19 AM CDT (4/17)
Length of Visible Light 14h 34m
Length of Day
13h 34m
Waxing Crescent, 42% of the Moon is Illuminated
Apr 17
Waxing Crescent
Apr 18
First Quarter
Apr 25
Full
May 2
Last Quarter
May 9
New

Hourly Weather History & Observations

Time (CDT) Temp. Windchill Dew Point Humidity Pressure Visibility Wind Dir Wind Speed Gust Speed Precip Events Conditions
12:15 AM 33.8 °F - 28.4 °F 81% 30.32 in 10.0 mi Calm Calm - N/A   Clear
12:35 AM 33.8 °F - 30.2 °F 87% 30.33 in 10.0 mi Calm Calm - N/A   Clear
12:55 AM 33.8 °F 29.6 °F 30.2 °F 87% 30.35 in 8.0 mi North 4.6 mph - N/A   Clear
1:15 AM 35.6 °F 31.7 °F 30.2 °F 81% 30.35 in 10.0 mi North 4.6 mph - N/A   Clear
1:35 AM 35.6 °F 28.0 °F 30.2 °F 81% 30.36 in 10.0 mi NNE 10.4 mph - N/A   Clear
1:55 AM 35.6 °F 28.6 °F 30.2 °F 81% 30.36 in 10.0 mi NE 9.2 mph - N/A   Clear
2:15 AM 35.6 °F 28.6 °F 30.2 °F 81% 30.36 in 10.0 mi NE 9.2 mph - N/A   Clear
2:35 AM 35.6 °F 29.9 °F 30.2 °F 81% 30.37 in 10.0 mi NE 6.9 mph - N/A   Clear
2:55 AM 35.6 °F 29.9 °F 30.2 °F 81% 30.36 in 10.0 mi NE 6.9 mph - N/A   Clear
3:15 AM 35.6 °F 30.7 °F 30.2 °F 81% 30.36 in 10.0 mi NE 5.8 mph - N/A   Clear
3:35 AM 35.6 °F 29.9 °F 30.2 °F 81% 30.36 in 10.0 mi NE 6.9 mph - N/A   Clear
3:55 AM 35.6 °F 30.7 °F 30.2 °F 81% 30.37 in 10.0 mi NE 5.8 mph - N/A   Clear
4:15 AM 35.6 °F 29.9 °F 28.4 °F 75% 30.36 in 10.0 mi NNE 6.9 mph - N/A   Clear
4:35 AM 35.6 °F 31.7 °F 28.4 °F 75% 30.36 in 10.0 mi NE 4.6 mph - N/A   Clear
4:55 AM 35.6 °F 29.9 °F 28.4 °F 75% 30.36 in 10.0 mi NE 6.9 mph - N/A   Clear
5:15 AM 35.6 °F 29.9 °F 28.4 °F 75% 30.36 in 10.0 mi NE 6.9 mph - N/A   Clear
5:35 AM 35.6 °F 30.7 °F 28.4 °F 75% 30.35 in 10.0 mi NE 5.8 mph - N/A   Clear
5:55 AM 35.6 °F 29.9 °F 28.4 °F 75% 30.35 in 10.0 mi NE 6.9 mph - N/A   Clear
6:15 AM 35.6 °F 29.9 °F 28.4 °F 75% 30.35 in 10.0 mi NE 6.9 mph - N/A   Clear
6:35 AM 35.6 °F 30.7 °F 30.2 °F 81% 30.35 in 10.0 mi NE 5.8 mph - N/A   Clear
6:55 AM 35.6 °F 30.7 °F 30.2 °F 81% 30.36 in 10.0 mi NE 5.8 mph - N/A   Clear
7:15 AM 35.6 °F 29.2 °F 30.2 °F 81% 30.36 in 10.0 mi NE 8.1 mph - N/A   Clear
7:35 AM 37.4 °F 30.3 °F 30.2 °F 75% 30.35 in 10.0 mi NE 10.4 mph - N/A   Clear
7:55 AM 37.4 °F 30.3 °F 30.2 °F 75% 30.35 in 10.0 mi NE 10.4 mph - N/A   Clear
8:15 AM 37.4 °F 30.3 °F 30.2 °F 75% 30.36 in 10.0 mi ENE 10.4 mph - N/A   Clear
8:35 AM 39.2 °F 33.0 °F 32.0 °F 75% 30.36 in 10.0 mi NE 9.2 mph - N/A   Clear
9:15 AM 39.2 °F 35.0 °F 30.2 °F 70% 30.38 in 8.0 mi NE 5.8 mph - N/A   Overcast
9:35 AM 39.2 °F 33.6 °F 30.2 °F 70% 30.37 in 10.0 mi NE 8.1 mph - N/A   Mostly Cloudy
9:55 AM 39.2 °F 33.0 °F 32.0 °F 75% 30.37 in 10.0 mi NNE 9.2 mph - N/A   Partly Cloudy
10:15 AM 39.2 °F 33.0 °F 30.2 °F 70% 30.33 in 10.0 mi NNE 9.2 mph - N/A   Clear
10:35 AM 39.2 °F 34.2 °F 32.0 °F 75% 30.30 in 10.0 mi NE 6.9 mph - N/A   Clear
10:55 AM 41.0 °F 33.5 °F 32.0 °F 70% 30.29 in 10.0 mi ENE 13.8 mph 17.3 mph N/A   Clear
11:15 AM 39.2 °F 31.6 °F 30.2 °F 70% 30.26 in 10.0 mi NE 12.7 mph 18.4 mph N/A   Scattered Clouds
11:35 AM 39.2 °F 33.6 °F 32.0 °F 75% 30.28 in 10.0 mi NE 8.1 mph - N/A   Mostly Cloudy
11:55 AM 37.4 °F 31.4 °F 30.2 °F 75% 30.26 in 10.0 mi NNE 8.1 mph - N/A   Overcast
12:15 PM 37.4 °F 30.3 °F 32.0 °F 81% 30.28 in 10.0 mi NNE 10.4 mph - N/A   Overcast
12:35 PM 37.4 °F 30.8 °F 30.2 °F 75% 30.22 in 10.0 mi NE 9.2 mph 16.1 mph N/A   Mostly Cloudy
12:55 PM 37.4 °F 30.8 °F 30.2 °F 75% 30.25 in 10.0 mi NE 9.2 mph - N/A   Mostly Cloudy
1:15 PM 37.4 °F 32.1 °F 30.2 °F 75% 30.25 in 10.0 mi NNE 6.9 mph - N/A   Overcast
1:35 PM 37.4 °F 32.1 °F 30.2 °F 75% 30.25 in 10.0 mi North 6.9 mph - N/A   Overcast
1:55 PM 37.4 °F 32.1 °F 32.0 °F 81% 30.24 in 10.0 mi NE 6.9 mph - N/A   Overcast
2:15 PM 37.4 °F 31.4 °F 32.0 °F 81% 30.23 in 10.0 mi NNE 8.1 mph - N/A   Overcast
2:35 PM 37.4 °F 32.1 °F 33.8 °F 87% 30.24 in 10.0 mi North 6.9 mph - 0.01 in   Overcast
2:55 PM 37.4 °F 31.4 °F 32.0 °F 81% 30.24 in 10.0 mi North 8.1 mph - 0.05 in Thunderstorm Overcast
3:35 PM 35.6 °F 28.0 °F 33.8 °F 93% 30.20 in 7.0 mi NNE 10.4 mph - 0.08 in   Overcast
3:55 PM 35.6 °F 29.2 °F 33.8 °F 93% 30.18 in 8.0 mi NNE 8.1 mph - 0.12 in Thunderstorm Overcast
4:15 PM 35.6 °F 27.5 °F 33.8 °F 93% 30.15 in 9.0 mi NE 11.5 mph 16.1 mph 0.03 in   Overcast
4:35 PM 37.4 °F 29.8 °F 33.8 °F 87% 30.11 in 10.0 mi NE 11.5 mph - 0.05 in   Overcast
4:55 PM 37.4 °F 29.8 °F 35.6 °F 93% 30.13 in 10.0 mi NE 11.5 mph 18.4 mph 0.05 in   Mostly Cloudy
5:15 PM 37.4 °F 30.3 °F 33.8 °F 87% 30.12 in 10.0 mi NE 10.4 mph 16.1 mph N/A   Mostly Cloudy
5:35 PM 37.4 °F 29.8 °F 35.6 °F 93% 30.12 in 10.0 mi ENE 11.5 mph - N/A   Overcast
5:55 PM 39.2 °F 33.0 °F 35.6 °F 87% 30.12 in 10.0 mi ENE 9.2 mph - N/A   Overcast
6:15 PM 39.2 °F 33.6 °F 35.6 °F 87% 30.11 in 10.0 mi ENE 8.1 mph - N/A   Overcast
6:35 PM 39.2 °F 33.6 °F 35.6 °F 87% 30.10 in 10.0 mi NE 8.1 mph - N/A   Overcast
6:55 PM 39.2 °F 33.6 °F 35.6 °F 87% 30.09 in 10.0 mi ENE 8.1 mph - N/A   Overcast
7:15 PM 39.2 °F 33.0 °F 35.6 °F 87% 30.08 in 10.0 mi ENE 9.2 mph - N/A   Overcast
7:35 PM 39.2 °F 32.0 °F 35.6 °F 87% 30.05 in 10.0 mi ENE 11.5 mph - N/A   Overcast
7:55 PM 39.2 °F 32.5 °F 35.6 °F 87% 30.02 in 10.0 mi ENE 10.4 mph - N/A   Overcast
8:15 PM 39.2 °F 33.0 °F 35.6 °F 87% 30.01 in 10.0 mi ENE 9.2 mph - N/A   Overcast
8:35 PM 39.2 °F 33.0 °F 35.6 °F 87% 30.01 in 10.0 mi NE 9.2 mph - N/A   Overcast
8:55 PM 39.2 °F 32.5 °F 35.6 °F 87% 30.00 in 10.0 mi ENE 10.4 mph - N/A   Overcast
9:15 PM 39.2 °F 32.5 °F 35.6 °F 87% 29.99 in 10.0 mi NE 10.4 mph - N/A   Overcast
9:55 PM 39.2 °F 33.0 °F 35.6 °F 87% 30.00 in 10.0 mi NE 9.2 mph - N/A   Overcast
10:15 PM 39.2 °F 31.6 °F 35.6 °F 87% 29.98 in 10.0 mi ENE 12.7 mph - N/A   Overcast
10:35 PM 39.2 °F 31.6 °F 35.6 °F 87% 29.97 in 10.0 mi ENE 12.7 mph 19.6 mph N/A   Overcast
10:55 PM 39.2 °F 33.0 °F 35.6 °F 87% 29.99 in 10.0 mi NE 9.2 mph - N/A   Overcast
11:15 PM 39.2 °F 34.2 °F 35.6 °F 87% 29.99 in 10.0 mi NNE 6.9 mph - N/A   Overcast
11:35 PM 39.2 °F 33.0 °F 35.6 °F 87% 29.97 in 5.0 mi NE 9.2 mph - N/A   Overcast
11:55 PM 37.4 °F 32.1 °F 35.6 °F 93% 29.95 in 4.0 mi NE 6.9 mph - N/A   Overcast